• En España
  • Lista de países
  • Para 7 días
  • Temperatura del agua
  • Mapa Satelital
  • El tiempo en el mapa
  • Informadores
  • user-avatar
    Iniciar sesión

    Tiempo cada hora Killarney

    Hoy, 19 Septiembre, Miércoles

    Tiempo Temperatura Precipitaciones Viento Presión Humedad
    00:00 +11°C° 0.5 mm 7 mps 748 mmHg 90%
    01:00 +12°C° 0.5 mm 8 mps 747 mmHg 91%
    02:00 +12°C° 0.5 mm 9 mps 746 mmHg 92%
    03:00 +12°C° 1.5 mm 11 mps 745 mmHg 92%
    04:00 +13°C° 1.5 mm 13 mps 744 mmHg 92%
    05:00 +14°C° 1.5 mm 15 mps 744 mmHg 91%
    06:00 +13°C° 0.3 mm 14 mps 745 mmHg 86%
    07:00 +12°C° 0.3 mm 13 mps 746 mmHg 80%
    08:00 +10°C° 0.3 mm 12 mps 748 mmHg 75%
    09:00 +10°C° 0 mm 12 mps 749 mmHg 70%
    10:00 +12°C° 0 mm 12 mps 750 mmHg 66%
    11:00 +12°C° 0 mm 11 mps 751 mmHg 62%
    12:00 +12°C° 0.1 mm 11 mps 751 mmHg 62%
    13:00 +12°C° 0.1 mm 11 mps 752 mmHg 63%
    14:00 +12°C° 0.1 mm 10 mps 752 mmHg 64%
    15:00 +12°C° 0.1 mm 9 mps 753 mmHg 67%
    16:00 +11°C° 0.1 mm 9 mps 753 mmHg 69%
    17:00 +10°C° 0.1 mm 8 mps 754 mmHg 72%
    18:00 +10°C° 0.1 mm 7 mps 754 mmHg 73%
    19:00 +10°C° 0.1 mm 6 mps 754 mmHg 74%
    20:00 +9°C° 0.1 mm 6 mps 754 mmHg 75%
    21:00 +9°C° 0.2 mm 5 mps 754 mmHg 79%
    22:00 +9°C° 0.2 mm 5 mps 754 mmHg 83%
    23:00 +10°C° 0.2 mm 4 mps 754 mmHg 87%

    Mañana, 20 Septiembre, Jueves

    Tiempo Temperatura Precipitaciones Viento Presión Humedad
    00:00 +10°C° 0.1 mm 4 mps 754 mmHg 88%
    01:00 +10°C° 0.1 mm 4 mps 753 mmHg 89%
    02:00 +9°C° 0.1 mm 3 mps 753 mmHg 91%
    03:00 +9°C° 0 mm 3 mps 753 mmHg 91%
    04:00 +9°C° 0 mm 2 mps 753 mmHg 92%
    05:00 +8°C° 0 mm 2 mps 753 mmHg 93%
    06:00 +9°C° 0.2 mm 2 mps 752 mmHg 93%
    07:00 +10°C° 0.2 mm 2 mps 752 mmHg 92%
    08:00 +10°C° 0.2 mm 2 mps 752 mmHg 92%
    09:00 +10°C° 2.1 mm 3 mps 751 mmHg 94%
    10:00 +9°C° 2.1 mm 3 mps 750 mmHg 95%
    11:00 +9°C° 2.1 mm 3 mps 749 mmHg 97%
    12:00 +8°C° 2.2 mm 4 mps 748 mmHg 96%
    13:00 +7°C° 2.2 mm 4 mps 747 mmHg 96%
    14:00 +7°C° 2.2 mm 5 mps 746 mmHg 96%
    15:00 +7°C° 0.5 mm 5 mps 747 mmHg 95%
    16:00 +7°C° 0.5 mm 5 mps 747 mmHg 95%
    17:00 +7°C° 0.5 mm 5 mps 747 mmHg 94%
    18:00 +7°C° 0.2 mm 5 mps 748 mmHg 94%
    19:00 +7°C° 0.2 mm 5 mps 749 mmHg 94%
    20:00 +7°C° 0.2 mm 5 mps 750 mmHg 93%
    21:00 +7°C° 0 mm 5 mps 750 mmHg 92%
    22:00 +7°C° 0 mm 5 mps 751 mmHg 91%
    23:00 +7°C° 0 mm 6 mps 751 mmHg 89%

    Pasado mañana, 21 Septiembre, Viernes

    Tiempo Temperatura Precipitaciones Viento Presión Humedad
    00:00 +5°C° 0 mm 6 mps 751 mmHg 88%
    01:00 +5°C° 0 mm 6 mps 752 mmHg 87%
    02:00 +6°C° 0 mm 5 mps 752 mmHg 87%
    03:00 +5°C° 0.1 mm 6 mps 752 mmHg 86%
    04:00 +5°C° 0.1 mm 6 mps 753 mmHg 86%
    05:00 +5°C° 0.1 mm 6 mps 753 mmHg 86%
    06:00 +7°C° 0.2 mm 6 mps 753 mmHg 84%
    07:00 +8°C° 0.2 mm 7 mps 754 mmHg 82%
    08:00 +10°C° 0.2 mm 7 mps 754 mmHg 80%
    09:00 +10°C° 0.2 mm 8 mps 755 mmHg 77%
    10:00 +11°C° 0.2 mm 8 mps 755 mmHg 74%
    11:00 +12°C° 0.2 mm 8 mps 756 mmHg 71%
    12:00 +12°C° 0.1 mm 8 mps 756 mmHg 70%
    13:00 +12°C° 0.1 mm 8 mps 757 mmHg 69%
    14:00 +12°C° 0.1 mm 8 mps 757 mmHg 68%
    15:00 +11°C° 0.1 mm 7 mps 758 mmHg 72%
    16:00 +10°C° 0.1 mm 6 mps 758 mmHg 76%
    17:00 +9°C° 0.1 mm 5 mps 759 mmHg 80%
    18:00 +9°C° 0 mm 5 mps 760 mmHg 82%
    19:00 +8°C° 0 mm 5 mps 760 mmHg 84%
    20:00 +7°C° 0 mm 5 mps 761 mmHg 86%
    21:00 +7°C° 0 mm 4 mps 762 mmHg 86%
    22:00 +6°C° 0 mm 4 mps 762 mmHg 86%
    23:00 +6°C° 0 mm 4 mps 762 mmHg 86%

    22 Septiembre, Sábado

    Tiempo Temperatura Precipitaciones Viento Presión Humedad
    00:00 +6°C° 0 mm 4 mps 763 mmHg 87%
    01:00 +6°C° 0 mm 4 mps 763 mmHg 87%
    02:00 +6°C° 0 mm 4 mps 763 mmHg 87%
    03:00 +7°C° 0 mm 3 mps 764 mmHg 87%
    04:00 +7°C° 0 mm 3 mps 764 mmHg 86%
    05:00 +7°C° 0 mm 3 mps 764 mmHg 86%
    06:00 +8°C° 0 mm 2 mps 764 mmHg 82%
    07:00 +9°C° 0 mm 2 mps 764 mmHg 79%
    08:00 +12°C° 0 mm 1 mps 764 mmHg 75%
    09:00 +12°C° 0 mm 2 mps 764 mmHg 73%
    10:00 +13°C° 0 mm 2 mps 764 mmHg 70%
    11:00 +12°C° 0 mm 3 mps 763 mmHg 67%
    12:00 +12°C° 0.4 mm 3 mps 762 mmHg 72%
    13:00 +11°C° 0.4 mm 4 mps 761 mmHg 77%
    14:00 +11°C° 0.4 mm 4 mps 760 mmHg 82%
    15:00 +9°C° 3.4 mm 6 mps 759 mmHg 87%
    16:00 +8°C° 3.4 mm 7 mps 757 mmHg 91%
    17:00 +6°C° 3.4 mm 8 mps 755 mmHg 96%
    18:00 +6°C° 5.4 mm 10 mps 752 mmHg 95%
    19:00 +7°C° 5.4 mm 12 mps 749 mmHg 95%
    20:00 +6°C° 5.4 mm 14 mps 746 mmHg 94%
    21:00 +9°C° 8.6 mm 13 mps 742 mmHg 95%
    22:00 +12°C° 8.6 mm 12 mps 739 mmHg 95%
    23:00 +14°C° 8.6 mm 10 mps 735 mmHg 96%

    23 Septiembre, Domingo

    Tiempo Temperatura Precipitaciones Viento Presión Humedad
    00:00 +13°C° 1.5 mm 10 mps 733 mmHg 96%
    01:00 +12°C° 1.5 mm 9 mps 731 mmHg 96%
    02:00 +11°C° 1.5 mm 9 mps 730 mmHg 96%
    03:00 +9°C° 1.4 mm 13 mps 732 mmHg 94%
    04:00 +6°C° 1.4 mm 17 mps 734 mmHg 91%
    05:00 +4°C° 1.4 mm 21 mps 736 mmHg 89%
    06:00 +4°C° 0.2 mm 20 mps 739 mmHg 86%
    07:00 +6°C° 0.2 mm 19 mps 743 mmHg 82%
    08:00 +6°C° 0.2 mm 18 mps 746 mmHg 79%
    09:00 +7°C° 0 mm 18 mps 749 mmHg 76%
    10:00 +9°C° 0 mm 17 mps 751 mmHg 72%
    11:00 +9°C° 0 mm 17 mps 754 mmHg 69%
    12:00 +10°C° 0 mm 16 mps 755 mmHg 68%
    13:00 +10°C° 0 mm 15 mps 757 mmHg 67%
    14:00 +10°C° 0 mm 15 mps 758 mmHg 66%
    15:00 +9°C° 0 mm 14 mps 760 mmHg 67%
    16:00 +9°C° 0 mm 13 mps 761 mmHg 68%
    17:00 +8°C° 0 mm 12 mps 762 mmHg 69%
    18:00 +8°C° 0 mm 10 mps 764 mmHg 71%
    19:00 +7°C° 0 mm 9 mps 765 mmHg 72%
    20:00 +7°C° 0 mm 8 mps 766 mmHg 74%
    21:00 +6°C° 0 mm 7 mps 767 mmHg 76%
    22:00 +6°C° 0 mm 7 mps 768 mmHg 78%
    23:00 +7°C° 0 mm 6 mps 768 mmHg 80%

    24 Septiembre, Lunes

    Tiempo Temperatura Precipitaciones Viento Presión Humedad
    00:00 +7°C° 0 mm 6 mps 769 mmHg 82%
    01:00 +6°C° 0 mm 5 mps 769 mmHg 84%
    02:00 +6°C° 0 mm 5 mps 769 mmHg 86%
    03:00 +6°C° 0 mm 4 mps 770 mmHg 87%
    04:00 +6°C° 0 mm 4 mps 770 mmHg 87%
    05:00 +6°C° 0 mm 4 mps 770 mmHg 88%
    06:00 +8°C° 0 mm 3 mps 771 mmHg 83%
    07:00 +9°C° 0 mm 3 mps 771 mmHg 79%
    08:00 +11°C° 0 mm 3 mps 771 mmHg 74%
    09:00 +11°C° 0 mm 3 mps 771 mmHg 72%
    10:00 +12°C° 0 mm 3 mps 771 mmHg 69%
    11:00 +12°C° 0 mm 4 mps 771 mmHg 67%
    12:00 +12°C° 0 mm 4 mps 771 mmHg 69%
    13:00 +13°C° 0 mm 4 mps 771 mmHg 70%
    14:00 +13°C° 0 mm 5 mps 771 mmHg 72%
    15:00 +12°C° 0 mm 5 mps 770 mmHg 76%
    16:00 +12°C° 0 mm 5 mps 770 mmHg 79%
    17:00 +10°C° 0 mm 5 mps 769 mmHg 83%
    18:00 +10°C° 0.1 mm 5 mps 769 mmHg 83%
    19:00 +10°C° 0.1 mm 6 mps 769 mmHg 84%
    20:00 +10°C° 0.1 mm 6 mps 769 mmHg 85%
    21:00 +10°C° 0.9 mm 6 mps 768 mmHg 88%
    22:00 +10°C° 0.9 mm 7 mps 767 mmHg 91%
    23:00 +10°C° 0.9 mm 7 mps 766 mmHg 95%
    Mostrar más